TimePST,TemperatureF,Dew PointF,Humidity,Sea Level PressureIn,VisibilityMPH,Wind Direction,Wind SpeedMPH,Gust SpeedMPH,PrecipitationIn,Events,Conditions,WindDirDegrees,DateUTC
12:52 AM,46.9,30.0,52,30.20,10.0,Calm,Calm,-,N/A,,Clear,0,2012-12-20 08:52:00
1:52 AM,48.0,27.0,44,30.19,10.0,Calm,Calm,-,N/A,,Clear,0,2012-12-20 09:52:00
2:52 AM,45.0,27.0,49,30.18,10.0,ENE,3.5,-,N/A,,Clear,70,2012-12-20 10:52:00
3:52 AM,46.0,28.0,50,30.16,10.0,Calm,Calm,-,N/A,,Clear,0,2012-12-20 11:52:00
4:52 AM,46.0,30.0,54,30.17,10.0,NE,3.5,-,N/A,,Clear,50,2012-12-20 12:52:00
5:52 AM,46.0,28.9,51,30.16,10.0,Calm,Calm,-,N/A,,Clear,0,2012-12-20 13:52:00
6:52 AM,46.0,30.0,54,30.18,10.0,North,8.1,-,N/A,,Partly Cloudy,350,2012-12-20 14:52:00
7:52 AM,50.0,25.0,38,30.20,10.0,NNE,6.9,-,N/A,,Partly Cloudy,30,2012-12-20 15:52:00
8:52 AM,55.9,26.1,32,30.20,10.0,North,6.9,-,N/A,,Scattered Clouds,350,2012-12-20 16:52:00
9:52 AM,61.0,23.0,23,30.19,10.0,Calm,Calm,-,N/A,,Scattered Clouds,0,2012-12-20 17:52:00
10:52 AM,64.9,16.0,15,30.17,10.0,North,6.9,-,N/A,,Scattered Clouds,350,2012-12-20 18:52:00
11:52 AM,68.0,21.0,17,30.12,10.0,North,3.5,-,N/A,,Scattered Clouds,350,2012-12-20 19:52:00
12:52 PM,66.0,33.1,29,30.09,10.0,WNW,11.5,-,N/A,,Partly Cloudy,300,2012-12-20 20:52:00
1:52 PM,66.0,28.0,24,30.08,10.0,WNW,8.1,-,N/A,,Partly Cloudy,300,2012-12-20 21:52:00
2:52 PM,64.9,32.0,29,30.07,10.0,WNW,10.4,-,N/A,,Partly Cloudy,300,2012-12-20 22:52:00
3:52 PM,63.0,34.0,34,30.06,10.0,NW,9.2,-,N/A,,Partly Cloudy,320,2012-12-20 23:52:00
4:52 PM,60.1,37.0,42,30.06,10.0,NNW,8.1,-,N/A,,Partly Cloudy,330,2012-12-21 00:52:00
5:52 PM,59.0,42.1,53,30.08,10.0,North,5.8,-,N/A,,Partly Cloudy,10,2012-12-21 01:52:00
6:52 PM,55.9,41.0,57,30.08,10.0,Calm,Calm,-,N/A,,Partly Cloudy,0,2012-12-21 02:52:00
7:52 PM,53.1,42.1,66,30.09,10.0,Calm,Calm,-,N/A,,Partly Cloudy,0,2012-12-21 03:52:00
8:52 PM,53.1,42.1,66,30.10,9.0,Calm,Calm,-,N/A,,Partly Cloudy,0,2012-12-21 04:52:00
9:52 PM,51.1,41.0,68,30.11,8.0,Calm,Calm,-,N/A,,Clear,0,2012-12-21 05:52:00
10:52 PM,48.9,39.9,71,30.11,10.0,Calm,Calm,-,N/A,,Clear,0,2012-12-21 06:52:00
11:52 PM,48.0,39.0,71,30.09,10.0,Calm,Calm,-,N/A,,Clear,0,2012-12-21 07:52:00